This is the latest recevied weather packets stored in our database for station/object KQ4JKJ. If no packets are shown the sender has not sent any weather packets the latest 10 day(s).
| Time | Temp. | Humidity | Pressure | Rain* | Wind** | Luminosity | Snow |
|---|---|---|---|---|---|---|---|
| 1777808235 | 18.89° C | 99% | 1009.9 hPa | 0 mm | - | 31 W/m² | - |
| 1777807934 | 18.89° C | 99% | 1009.8 hPa | 0 mm | - | 23 W/m² | - |
| 1777807631 | 18.89° C | 99% | 1009.7 hPa | 0 mm | - | 20 W/m² | - |
| 1777807328 | 18.89° C | 99% | 1009.8 hPa | 0 mm | - | 22 W/m² | - |
| 1777807024 | 18.89° C | 99% | 1009.7 hPa | 0 mm | - | 18 W/m² | - |
| 1777806721 | 18.89° C | 99% | 1009.8 hPa | 0 mm | - | 12 W/m² | - |
| 1777806417 | 18.89° C | 99% | 1010 hPa | 0 mm | - | 6 W/m² | - |
| 1777806114 | 18.89° C | 99% | 1009.8 hPa | 0 mm | - | 4 W/m² | - |
| 1777805810 | 18.89° C | 99% | 1009.7 hPa | 0 mm | - | 4 W/m² | - |
| 1777805507 | 18.89° C | 99% | 1009.6 hPa | 0 mm | - | 3 W/m² | - |
| 1777805200 | 18.89° C | 99% | 1009.5 hPa | 0 mm | - | 1 W/m² | - |
| 1777804898 | 18.89° C | 99% | 1009.4 hPa | 0 mm | - | 1 W/m² | - |
| 1777804595 | 18.89° C | 99% | 1009.3 hPa | 0 mm | - | 0 W/m² | - |
| 1777804293 | 18.89° C | 99% | 1009.3 hPa | 0 mm | - | 0 W/m² | - |
| 1777803989 | 18.89° C | 99% | 1009.6 hPa | 0 mm | - | 0 W/m² | - |
| 1777803685 | 18.89° C | 99% | 1009.1 hPa | 0 mm | - | 0 W/m² | - |
| 1777803381 | 18.89° C | 99% | 1009.1 hPa | 0 mm | - | 0 W/m² | - |
| 1777803080 | 18.33° C | 99% | 1009.2 hPa | 0 mm | - | 0 W/m² | - |
| 1777802777 | 18.89° C | 99% | 1009.2 hPa | 0 mm | - | 0 W/m² | - |
| 1777802475 | 18.89° C | 99% | 1009 hPa | 0 mm | - | 0 W/m² | - |
| 1777802173 | 18.33° C | 99% | 1009 hPa | 0 mm | - | 0 W/m² | - |
| 1777801871 | 18.89° C | 99% | 1009 hPa | 0 mm | - | 0 W/m² | - |
| 1777801567 | 18.89° C | 99% | 1008.8 hPa | 0 mm | - | 0 W/m² | - |
| 1777801263 | 18.89° C | 99% | 1009.1 hPa | 0 mm | - | 0 W/m² | - |
| 1777800959 | 18.33° C | 99% | 1009 hPa | 0 mm | - | 0 W/m² | - |
* Rain latest hour (hover to see other rain measurements)
** Current wind speed in m/s (hover to see current wind gust speed)